カタログに戻る

STARLINK-32345

運用中通信VLEO
NORAD 60920·PAYLOAD·🇺🇸 United States

打ち上げ Aug 31, 2024 から Cape Canaveral Space Force Station

Loading…

次のパス (今後24時間)

TLE

最新Source: CelesTrak SupGP

元期: Sep 14, 2026, 14:14 UTC

1 60920C 24154T   26257.59354167 -.00010491  00000+0 -31017-3 0  2573
2 60920  53.1567 125.4332 0001263  96.1403 155.8924 15.34374840    15

AllMySatでSTARLINK-32345をリアルタイム追跡

Download on the App Store